Location: ????????
(60.4333°N, 46.4710°E)
Time: 03:45:29
(UTC+00:00)

GEOS 3 Rocket - Pass Details

Date: 25 November 2020
Orbit: 770 x 849 km, 115.0° (Epoch: 19 January)

Event Time Altitude Azimuth Distance (km) Brightness Sun altitude
Exits shadow 14:02:08 18° 60° (ENE) 1,955 5.0 -13.4°
Maximum altitude 14:06:07 64° 343° (NNW) 942 3.9 -13.9°
Drops below altitude 10° 14:11:27 10° 264° (W) 2,473 7.5 -14.5°
Sets 14:13:46 0° 261° (W) 3,402 8.7 -14.8°
